Voltar ao catálogo

STARLINK-6342

AtivoComunicaçõesVLEO
NORAD 56770·PAYLOAD·🇺🇸 United States

Lançado May 31, 2023 de Vandenberg Space Force Base

Loading…

Próximas Passagens (próximas 24 horas)

TLE

AtualizadoSource: CelesTrak SupGP

Época: Sep 14, 2026, 21:24 UTC

1 56770C 23078D   26257.89215278  .00723940  00000+0  60259-1 0  2573
2 56770  70.0003 247.4095 0003572 263.0231 245.0628 14.98227507    15

Acompanhe STARLINK-6342 em tempo real com AllMySat

Download on the App Store